Regional Weather Roundup
Issued by NWS

Home | Current Version | Previous Version | Text Only | Print | Product List | Glossary On
Versions: 1 2 3 4 5 6 7 8 9 10 11 12 13 14 15 16 17 18 19 20 21 22 23 24 25 26 27 28 29 30 31 32 33 34 35 36 37 38 39 40 41 42 43 44 45 46 47 48 49 50
000
ASUS43 KMPX 230010
RWRMN
WEATHER ROUNDUP FOR MINNESOTA
NATIONAL WEATHER SERVICE TWIN CITIES/CHANHASSEN MN
700 PM CDT FRI MAY 22 2015


NOTE: "FAIR" INDICATES FEW OR NO CLOUDS BELOW 12,000 FEET WITH NO
SIGNIFICANT WEATHER AND/OR OBSTRUCTIONS TO VISIBILITY. N/A MEANS
CURRENT SKY AND/OR WEATHER CONDITIONS ARE NOT AVAILABLE.

MNZ060>063-068>070-230100-
   Twin Cities Metro

CITY           SKY/WX    TMP DP  RH WIND       PRES   REMARKS
TWIN CITIES    PTSUNNY   72  34  24 SE6       30.18S
6HR MIN TEMP:  70; 6HR MAX TEMP:  75;

ST PAUL        MOSUNNY   73  37  27 CALM      30.18S
CRYSTAL        MOSUNNY   73  36  25 VRB5      30.17S
BLAINE         MOSUNNY   73  34  23 CALM      30.18S
LAKEVILLE      PTSUNNY   70  36  28 CALM      30.18S
EDEN PRAIRIE   MOSUNNY   72  33  24 VRB3      30.17S
6HR MIN TEMP:  70; 6HR MAX TEMP:  74;

SOUTH ST PAUL  MOSUNNY   72  33  23 S5        30.18S
LAKE ELMO      FAIR      70  41  35 CALM      30.20R HAZE
$$
MNZ001>005-007-008-013>017-022>024-027-028-230100-
   Northwest Minnesota

CITY           SKY/WX    TMP DP  RH WIND       PRES   REMARKS
BEMIDJI        SUNNY     73  35  24 SW3       30.14S
HALLOCK        MOSUNNY   77  37  24 SW13G18   30.08S
ROSEAU         MOSUNNY   75  39  27 SW14      30.09S
WARROAD        MOSUNNY   75  45  33 SW12G20   30.09S
THIEF RVR FALL SUNNY     75  36  23 SW10      30.13S
CROOKSTON      SUNNY     75  37  25 SW9       30.12F
FOSSTON        SUNNY     75  37  25 SW6       30.14F
DETROIT LAKES  SUNNY     72  34  25 S7        30.17S
MOORHEAD       SUNNY     73  36  25 SE5       30.14S
PARK RAPIDS    SUNNY     73  33  23 SW8       30.14F
MAHNOMEN       FAIR      73  35  24 S8        30.13F
$$
MNZ006-009>011-018-025>026-230100-
   North Central Minnesota

CITY           SKY/WX    TMP DP  RH WIND       PRES   REMARKS
BAUDETTE       MOSUNNY   74  38  27 W10       30.09F
INTL FALLS     MOSUNNY   73  37  27 W12       30.10S
6HR MIN TEMP:  68; 6HR MAX TEMP:  75;

WASKISH        SUNNY     72  43  35 CALM      30.12F
BIG FORK       SUNNY     73  34  23 W8        30.13S
LONGVILLE      SUNNY     73  32  21 CALM      30.15S
GRAND RAPIDS   SUNNY     72  36  26 SW7       30.16S
CRANE LAKE     SUNNY     72  30  21 CALM      30.12S
ORR            MOSUNNY   73  28  19 W6        30.10S
COOK           SUNNY     72  36  26 SW8       30.13S
WALKER         FAIR      71  38  29 CALM      30.14S
$$
MNZ012-019>021-037-230100-
   Northeast Minnesota

CITY           SKY/WX    TMP DP  RH WIND       PRES   REMARKS
DULUTH         MOSUNNY   72  32  23 W5        30.16S
6HR MIN TEMP:  66; 6HR MAX TEMP:  73;

ELY            SUNNY     70  28  21 W9        30.13S
HIBBING        SUNNY     72  32  23 W9        30.14F
EVELETH        SUNNY     72  34  25 W9        30.15S
DULUTH HARBOR  SUNNY     45  37  76 NE5       30.18S
TWO HARBORS    SUNNY     63  37  39 CALM      30.14F
SILVER BAY     SUNNY     61  30  31 CALM      30.14F
GRAND MARAIS     N/A     43  32  65 E5        30.18F
G MARAIS ARPRT SUNNY     55  25  30 S6        30.19S
$$
MNZ029>031-032-039>041-046>048-054>057-064-230100-
   West Central Minnesota

CITY           SKY/WX    TMP DP  RH WIND       PRES   REMARKS
FERGUS FALLS   SUNNY     73  36  25 SE7       30.14S
WHEATON        MOSUNNY   72  32  23 SE8       30.15S
MORRIS         MOSUNNY   73  30  20 SE5       30.14S
ALEXANDRIA     SUNNY     71  34  25 S6        30.17F
ELBOW LAKE     FAIR      71  35  26 SE5       30.15S
WADENA         SUNNY     72  37  28 S6        30.16S
GLENWOOD       MOSUNNY   72  32  23 E3        30.18S
APPLETON       MOSUNNY   75  30  19 E5        30.13S
BENSON         MOSUNNY   73  28  19 CALM      30.15S
ORTONVILLE     MOSUNNY   73  32  21 E7        30.13S
MADISON        PTSUNNY   73  21  14 CALM      30.13S
WILLMAR        FAIR      75  34  22 SE6       30.16F
$$
MNZ033>034-036-042>043-049>051-058-059-230100-
   Central Minnesota

CITY           SKY/WX    TMP DP  RH WIND       PRES   REMARKS
ST CLOUD       SUNNY     73  34  23 CALM      30.17S
6HR MIN TEMP:  68; 6HR MAX TEMP:  74;

SAUK CENTRE    FAIR      71  36  27 SE5       30.17S
PAYNESVILLE    MOSUNNY   69  34  27 E5        30.18S
AITKIN         SUNNY     72  28  20 S7        30.15S
PINE RIVER     SUNNY     73  41  31 S3        30.17F
BRAINERD       SUNNY     71  33  24 S6        30.16F
STAPLES        SUNNY     72  34  25 S8        30.16S
LONG PRAIRIE   FAIR      70  32  24 SE5       30.18S
LITTLE FALLS   SUNNY     72  32  23 S3        30.17F
LITCHFIELD     MOSUNNY   72  36  26 E3        30.18S
BUFFALO        MOSUNNY   71  32  23 SE3       30.19S
MAPLE LAKE     MOSUNNY   72  39  30 CALM      30.19S
$$
MNZ037-044-045-052-053-230100-
   East Central Minnesota

CITY           SKY/WX    TMP DP  RH WIND       PRES   REMARKS
PRINCETON      SUNNY     72  37  28 NW3       30.18S
MORA           SUNNY     70  36  28 SW5       30.19S
CAMBRIDGE      SUNNY     73  48  40 NW5       30.16S
RUSH CITY      SUNNY     70  33  25 CALM      30.18S
MOOSE LAKE     SUNNY     72  36  26 SW3       30.15S
HINCKLEY       FAIR      70  39  32 SW6       30.17S
CLOQUET        SUNNY     72  27  18 W5        30.16S
MCGREGOR       SUNNY     70  36  28 S7        30.16F
$$
MNZ071>073-080-081-089-090-097-098-230100-
   Southwest Minnesota

CITY           SKY/WX    TMP DP  RH WIND       PRES   REMARKS
MONTEVIDEO     PTSUNNY   73  34  23 S6        30.15S
GRANITE FALLS  PTSUNNY   73  32  21 E6        30.16S
CANBY          PTSUNNY   72  33  24 E7        30.14S
MARSHALL       CLOUDY    73  34  23 SE6       30.13F
REDWOOD FALLS  PTSUNNY   74  31  20 E7        30.15S
OLIVIA         PTSUNNY   70  32  24 SE3       30.15F
PIPESTONE      CLOUDY    72  32  23 S9        30.15S
WINDOM         CLOUDY    72  28  20 CALM      30.16F
WORTHINGTON    CLOUDY    72  32  23 S7        30.16S
JACKSON        CLOUDY    72  34  25 S5        30.17F
TRACY          CLOUDY    74  34  22 E5        30.15S
SLAYTON        CLOUDY    72  31  22 CALM      30.16S
$$
MNZ065>067-074>077-082>085-091>093-230100-
   South Central Minnesota

CITY           SKY/WX    TMP DP  RH WIND       PRES   REMARKS
MANKATO        CLOUDY    72  34  25 NE7       30.18R
NEW ULM        CLOUDY    72  30  21 E3        30.16S
ST JAMES       CLOUDY    73  30  20 SE5       30.17S
FAIRMONT       CLOUDY    70  34  26 SE8       30.17S
GLENCOE        PTSUNNY   71  40  31 NE3       30.17S
FARIBAULT      PTSUNNY   72  34  25 CALM      30.19S
OWATONNA       CLOUDY    72  27  18 CALM      30.18S
WASECA         CLOUDY    72  39  30 E3        30.19S
ALBERT LEA     CLOUDY    72  36  26 CALM      30.18F
$$
MNZ078>079-086>088-094>096-230100-
   Southeast Minnesota

CITY           SKY/WX    TMP DP  RH WIND       PRES   REMARKS
ROCHESTER      CLOUDY    68  42  38 E5        30.20S
6HR MIN TEMP:  68; 6HR MAX TEMP:  72;

RED WING       PTSUNNY   72  36  26 SE5       30.18S
STANTON        PTSUNNY   73  30  20 E3        30.17S
DODGE CENTER   CLOUDY    72  28  20 SE7       30.19S
WINONA         PTSUNNY   70  36  28 CALM      30.19S
AUSTIN         CLOUDY    70  36  28 CALM      30.18F
PRESTON        CLOUDY    69  32  25 E3        30.20S
$$
ABBREVIATIONS USED IN REMARKS
   TC - TEMPERATURES IN CELSIUS
  WCI - WIND CHILL INDEX
   HX - HEAT INDEX
  VSB - VISIBILITY
$$


USA.gov is the U.S. government's official web portal to all federal, state and local government web resources and services.